Regional Weather Roundup
Issued by NWS

Home | Current Version | Previous Version | Graphics & Text | Print | Product List | Glossary On
Versions: 1 2 3 4 5 6 7 8 9 10 11 12 13 14 15 16 17 18 19 20 21 22 23 24 25 26 27 28 29 30 31 32 33 34 35 36 37 38 39 40 41 42 43 44 45 46 47 48 49 50
000
ASUS43 KMKX 261220
RWRWI

WISCONSIN REGIONAL WEATHER ROUNDUP
NATIONAL WEATHER SERVICE MILWAUKEE/SULLIVAN WI
700 AM CDT THU MAR 26 2015

NOTE: "FAIR" INDICATES FEW OR NO CLOUDS BELOW 12,000 FEET WITH NO
SIGNIFICANT WEATHER AND/OR OBSTRUCTIONS TO VISIBILITY.

WIZ001-002-006>008-014>016-023>028-261300-
NORTHWEST WISCONSIN

CITY           SKY/WX    TMP DP  RH WIND       PRES   REMARKS
SUPERIOR ARPT  CLOUDY    26  17  68 N8G17     30.08R WCI  17
6HR MIN TEMP:  26; 6HR MAX TEMP:  31;

ASHLAND        CLOUDY    23  13  65 NW13G22   30.04R WCI  11
6HR MIN TEMP:  23; 6HR MAX TEMP:  32;

HAYWARD        CLOUDY    26  15  63 NW10G17   30.00R WCI  16
6HR MIN TEMP:  26; 6HR MAX TEMP:  32; 6HR PCP: TRACE;

SIREN          CLOUDY    29  17  59 NW14G20   30.04R WCI  19
6HR MIN TEMP:  29; 6HR MAX TEMP:  33;

CUMBERLAND     CLOUDY    28  19  69 N15G21    30.00R WCI  17
RICE LAKE      CLOUDY    30  20  68 NW12G18   30.02R WCI  20
6HR MIN TEMP:  30; 6HR MAX TEMP:  33;

CHETEK         CLOUDY    30  20  68 W10G18    30.00R WCI  21
6HR MIN TEMP:  30; 6HR MAX TEMP:  33;

LADYSMITH      CLOUDY    29  21  71 NW13G18   29.99R WCI  19
6HR MIN TEMP:  30; 6HR MAX TEMP:  33;

EAU CLAIRE     CLOUDY    31  19  61 NW15      30.00R WCI  20
6HR MIN TEMP:  31; 6HR MAX TEMP:  35;

MENOMONIE      CLOUDY    31  20  62 NW15      30.02R WCI  20
6HR MIN TEMP:  32; 6HR MAX TEMP:  35;

NEW RICHMOND   CLOUDY    29  20  69 NW14G23   30.04R WCI  18
6HR MIN TEMP:  29; 6HR MAX TEMP:  33;

OSCEOLA        CLOUDY    30  21  68 NW12G21   30.07S WCI  20
6HR MIN TEMP:  30; 6HR MAX TEMP:  34;

$$

WIZ003>005-009-010-017-018-261300-
NORTH CENTRAL WISCONSIN

CITY           SKY/WX    TMP DP  RH WIND       PRES   REMARKS
MANITOWISH WTR CLOUDY    22  18  85 NW13G22   29.92R WCI  10
6HR MIN TEMP:  22; 6HR MAX TEMP:  30;

ARBOR VITAE    CLOUDY    24  18  77 N15G22    29.91R WCI  12
6HR MIN TEMP:  24; 6HR MAX TEMP:  32;

WOODRUFF       CLOUDY    24  18  77 N15G22    29.91R WCI  12
6HR MIN TEMP:  24; 6HR MAX TEMP:  32;

RHINELANDER    CLOUDY    26  19  74 N16G23    29.90R WCI  14
6HR MIN TEMP:  26; 6HR MAX TEMP:  31; 6HR PCP: TRACE;

EAGLE RIVER    CLOUDY    25  17  72 NW16G22   29.89R WCI  12
6HR MIN TEMP:  25; 6HR MAX TEMP:  31;

LAND O LAKES   LGT SNOW  24  19  82 NW13G18   29.90R WCI  12
6HR MIN TEMP:  24; 6HR MAX TEMP:  31;

PHILLIPS       CLOUDY    25  17  71 NW13G18   29.94R WCI  13
6HR MIN TEMP:  26; 6HR MAX TEMP:  31;

TOMAHAWK       CLOUDY    27  20  73 NW15      29.92R WCI  16
6HR MIN TEMP:  27; 6HR MAX TEMP:  31;

MEDFORD        CLOUDY    28  20  72 NW12G21   29.93R WCI  17
6HR MIN TEMP:  28; 6HR MAX TEMP:  32;

MERRILL        CLOUDY    29  21  71 NW16      29.92R WCI  18
6HR MIN TEMP:  29; 6HR MAX TEMP:  33;

$$

WIZ029-030-035-036-043>047-261300-
CENTRAL WISCONSIN

CITY           SKY/WX    TMP DP  RH WIND       PRES   REMARKS
WAUSAU         CLOUDY    30  20  66 NW17G26   29.90R WCI  18
6HR MIN TEMP:  30; 6HR MAX TEMP:  34;

MOSINEE        CLOUDY    34  23  64 NW16G23   29.92R WCI  23
MARSHFIELD     CLOUDY    32  21  64 NW14      29.93R WCI  22
6HR MIN TEMP:  31; 6HR MAX TEMP:  34;

STEVENS POINT  CLOUDY    31  19  63 NW12G23   29.93R WCI  21
6HR MIN TEMP:  31; 6HR MAX TEMP:  33;

WAUPACA        CLOUDY    36  21  54 W10G16    29.93R WCI  28
6HR MIN TEMP:  36; 6HR MAX TEMP:  38;

WAUTOMA        MOCLDY    34  21  59 NW9G20    29.94R WCI  27
6HR MIN TEMP:  34; 6HR MAX TEMP:  37;

WISC RAPIDS    CLOUDY    32  19  58 NW12G20   29.95R WCI  23
6HR MIN TEMP:  32; 6HR MAX TEMP:  35;

CAMP DOUGLAS   CLOUDY    33  23  67 W14       29.96R WCI  23
6HR MIN TEMP:  33; 6HR MAX TEMP:  35;

$$

WIZ011>013-019>022-031-037>040-048>050-261300-
NORTHEAST WISCONSIN

CITY           SKY/WX    TMP DP  RH WIND       PRES   REMARKS
ANTIGO         CLOUDY    28  21  76 NW13      29.88R WCI  17
6HR MIN TEMP:  28; 6HR MAX TEMP:  31;

SHAWANO        CLOUDY    35  24  63 NW7       29.91R WCI  29
6HR MIN TEMP:  36; 6HR MAX TEMP:  38;

OCONTO         CLOUDY    34  24  66 NW8       29.88R WCI  27
6HR MIN TEMP:  34; 6HR MAX TEMP:  37;

STURGEON BAY   CLOUDY    34  23  64 W12       29.89R WCI  25
6HR MIN TEMP:  34; 6HR MAX TEMP:  37;

GREEN BAY      CLOUDY    35  24  64 W13       29.90R WCI  26
6HR MIN TEMP:  35; 6HR MAX TEMP:  37;

MANITOWOC      CLOUDY    35  23  61 NW14      29.91R WCI  26
6HR MIN TEMP:  35; 6HR MAX TEMP:  38;

APPLETON       CLOUDY    34  21  60 NW13G20   29.91R WCI  25
CLINTONVILLE   CLOUDY    34  23  64 NW10      29.91R WCI  26
OSHKOSH        CLOUDY    34  22  61 W10       29.92R WCI  26
6HR MIN TEMP:  34; 6HR MAX TEMP:  37;

$$

WIZ032>034-041-042-053>061-261300-
SOUTHWEST WISCONSIN

CITY           SKY/WX    TMP DP  RH WIND       PRES   REMARKS
LA CROSSE      CLOUDY    34  22  61 NW14      30.01S WCI  25
6HR MIN TEMP:  32; 6HR MAX TEMP:  37;

SPARTA         CLOUDY    33  20  59 NW13      29.99S WCI  24
6HR MIN TEMP:  33; 6HR MAX TEMP:  35;

VIROQUA        CLOUDY    28  22  78 NW9       29.98R WCI  20
6HR MIN TEMP:  27; 6HR MAX TEMP:  33;

BOSCOBEL       CLEAR     30  21  69 W6        30.02R WCI  24
6HR MIN TEMP:  28; 6HR MAX TEMP:  35;

PRAIRIE DU CHI CLEAR     29  20  69 W12       30.03R WCI  19
6HR MIN TEMP:  29; 6HR MAX TEMP:  34;

PLATTEVILLE    CLEAR     26  22  84 W6        29.99R WCI  20
6HR MIN TEMP:  26; 6HR MAX TEMP:  33;

$$

WIZ056-057-062-063-064-067-068-261300-
SOUTH CENTRAL WISCONSIN

CITY           SKY/WX    TMP DP  RH WIND       PRES   REMARKS
REEDSBURG      CLOUDY    32  21  65 NW9       29.96R WCI  24
6HR MIN TEMP:  30; 6HR MAX TEMP:  35;

BARABOO/DELLS  CLOUDY    32  20  62 NW8       29.96R WCI  25
6HR MIN TEMP:  32; 6HR MAX TEMP:  35;

LONE ROCK      MOCLDY    29  22  75 W7        29.99R WCI  22
6HR MIN TEMP:  28; 6HR MAX TEMP:  35;

MINERAL POINT  CLEAR     27  21  80 W7        29.97R WCI  19
MADISON        MOCLDY    31  22  69 W5        29.96R WCI  26
6HR MIN TEMP:  30; 6HR MAX TEMP:  35;

MIDDLETON      CLOUDY    30  22  72 W6        29.97R WCI  24
6HR MIN TEMP:  30; 6HR MAX TEMP:  36;

WATERTOWN      CLOUDY    33  23  65 NW8       29.95R WCI  27
6HR MIN TEMP:  33; 6HR MAX TEMP:  35;

MONROE         CLEAR     27  23  86 W10       29.97R WCI  17
JANESVILLE     PTCLDY    28  23  80 W3        29.97R
$$

WIZ051-052-058>065-066-070>072-261300-
SOUTHEAST WISCONSIN

CITY           SKY/WX    TMP DP  RH WIND       PRES   REMARKS
MILWAUKEE      CLOUDY    36  21  54 NW9       29.95R WCI  29
6HR MIN TEMP:  36; 6HR MAX TEMP:  38;

WAUKESHA       CLOUDY    32  21  64 NW12      29.95R WCI  23
MILWAUKEE/TIMM CLOUDY    34  21  60 NW15G21   29.95S WCI  24
RACINE         CLOUDY    35  23  61 NW9       29.97R WCI  28
6HR MIN TEMP:  35; 6HR MAX TEMP:  37;

BURLINGTON     CLOUDY    32  23  68 NW7       29.96R WCI  26
6HR MIN TEMP:  32; 6HR MAX TEMP:  34;

KENOSHA        CLOUDY    35  25  66 NW8       29.95R WCI  29
6HR MIN TEMP:  34; 6HR MAX TEMP:  36;

FOND DU LAC    CLOUDY    34  22  61 NW12      29.93R WCI  25
6HR MIN TEMP:  34; 6HR MAX TEMP:  37;

SHEBOYGAN      CLOUDY    35  24  64 NW10      29.92R WCI  27
6HR MIN TEMP:  35; 6HR MAX TEMP:  37;

WEST BEND      CLOUDY    34  21  60 NW14      29.93R WCI  24
JUNEAU         CLOUDY    33  24  69 NW5       29.95R WCI  28
6HR MIN TEMP:  33; 6HR MAX TEMP:  35;

$$

LSZ147-162-261300-
LAKE SUPERIOR

STATION/POSITION TIME  TEMP    WIND        PRES    WAVE
                       AIR SEA DIR/SP/G            HT/PER
                 (UTC) (F)     (DEG/KT/KT) (MB)    (FT/S)
DEVILS ISLAND    1200   22     350/ 27/ 29 1018.7R
PORT WING        1100   26     330/ 21/ 26 1017.6
SAXON HARBOR     1140   26     340/ 20/ 23 1016.3R
$$

LMZ867-665-643>646-261300-
LAKE MICHIGAN

STATION/POSITION TIME  TEMP    WIND        PRES    WAVE



USA.gov is the U.S. government's official web portal to all federal, state and local government web resources and services.